OneWeb SL0304

operational
NORAD ID: 49092 Int'l Des: 2021-075 Owner: ONEWEBN Country: UK Constellation: oneweb
LEOCIRCULARPOLARONEWEB_TYPE

Über OneWeb SL0304

Beschreibung wird geladen...

Live-Position

3D-Globus wird geladen...

Nächste Überflüge

Höhenverlauf

Altitude vs Time

uPlot chart will show altitude changes over time

Zweizeiliger Elementsatz

1 49092U 21075T 26033.45757987 .00000022 00000-0 22950-4 0 9991
2 49092 87.9103 32.6342 0001987 89.7389 270.3970 13.17650276215838
Epoch: 2. Feb. 2026 • Age: 15 hours

Aktueller Status

Höhe 1197.0 km
Geschwindigkeit 7.26 km/s
Subsatellitenpunkt 31.55°N, 43.26°E
Startdatum 21. Aug. 2021
Alter 4.4 years
Typ internet

Technische Details

Klassifizierung Payload
Masse 148.00 kg
Trockenmasse 140.00 kg
Gesamtmasse 148.00 kg
Länge 1.30 m
Durchmesser 1.00 m
Spannweite 5.00 m
Form Trapezoid+2 pan
Hersteller ONEWUS
Bus-Typ ARROW
Phasenstatus In Orbit
Besitzer/Staat ONEWEBN/UK

Große Konstellationen

Loading constellations...